[[[{"header":{"parameterUnit":"kt","parameterCategory":2,"dx":1,"dy":1,"la1":30.253999710083008,"la2":30.299108505249023,"lo1":-89.0895004272461,"lo2":-89.04439544677734,"nx":28,"ny":28,"refTime":"2022-09-28T21:00:00:Z","depth":"0","parameterNumber":2,"parameterNumberName":"U-component_of_CURRENTS"},"data":[0.2225,0.2367,0.2441,0.2605,0.2662,0.2728,0.2763,0.2719,0.2667,0.2489,0.2289,0.2195,0.1849,0.1419,0.1018,0.0959,0.0831,0.0839,0.09,0.0966,0.1001,0.1034,0.093,0.0703,0.0702,0.0479,0.0477,0.0475,0.2153,0.2254,0.2352,0.2426,0.2512,0.2504,0.2607,0.2629,0.2733,0.2722,0.2783,0.2527,0.2285,0.2027,0.1625,0.1467,0.139,0.1366,0.1206,0.1182,0.1481,0.1388,0.1255,0.1255,0.1255,0.1255,0.1255,0.1255,0.2028,0.2106,0.2169,0.225,0.2311,0.239,0.245,0.2552,0.2664,0.2735,0.2827,0.2808,0.2601,0.2462,0.2379,0.1998,0.2121,0.1796,0.1783,0.1796,0.1668,0.204,0.2067,0.207,0.2072,0.2073,0.2075,0,0.1945,0.1952,0.2003,0.2085,0.2149,0.2217,0.2325,0.2392,0.2465,0.2557,0.2698,0.2755,0.2764,0.2628,0.2548,0.2478,0.2133,0.2257,0.2114,0.1669,0.1632,0.1554,0.1914,0.1961,0.1963,0.1964,0.1965,0.1966,0.1857,0.1882,0.1916,0.1958,0.1983,0.2056,0.213,0.2156,0.225,0.2357,0.2444,0.2522,0.2603,0.2641,0.2531,0.2502,0.2358,0.2295,0.2159,0.2012,0.1963,0.1945,0.1884,0.1985,0.1983,0.1981,0.1979,0,0.1806,0.1824,0.186,0.1893,0.1915,0.1957,0.2035,0.2105,0.2131,0.2252,0.2278,0.2312,0.239,0.2371,0.2399,0.2334,0.2265,0.2358,0.218,0.2149,0.2001,0.1964,0.1996,0.1929,0.2404,0.2405,0.2406,0,0.1764,0.1798,0.1842,0.1858,0.1907,0.1903,0.1967,0.1974,0.2036,0.2127,0.2094,0.2182,0.2149,0.2205,0.2176,0.2228,0.2238,0.2193,0.2184,0.2007,0.1993,0.1838,0.1788,0.2168,0.2167,0.2166,0.2166,0,0.1771,0.1774,0.1821,0.1824,0.1843,0.1857,0.1874,0.1909,0.1952,0.1992,0.2041,0.206,0.211,0.2105,0.2121,0.207,0.2197,0.2116,0.214,0.2141,0.1974,0.1958,0.1903,0.2164,0.2164,0.2164,0.2163,0,0.1754,0.1773,0.1804,0.1817,0.1826,0.1827,0.1875,0.1878,0.1916,0.1929,0.1955,0.1955,0.2008,0.1963,0.2021,0.198,0.1981,0.199,0.1993,0.1979,0.1919,0.1865,0.1933,0.1775,0.2014,0.2012,0.2011,0,0.1768,0.1789,0.1788,0.1786,0.1801,0.18,0.1811,0.1819,0.1834,0.1862,0.1873,0.1887,0.1849,0.1859,0.1881,0.1882,0.1923,0.1862,0.1881,0.1882,0.1903,0.2001,0.1814,0.1913,0.1991,0.1993,0.1994,0,0.1786,0.1805,0.1801,0.1812,0.1805,0.1797,0.1799,0.1808,0.1838,0.1812,0.1849,0.1818,0.1821,0.1799,0.1776,0.1807,0.1891,0.1765,0.1764,0.1834,0.1958,0.1972,0.1987,0.1847,0.1849,0.185,0.1979,0,0.1856,0.1839,0.1824,0.1813,0.1805,0.1789,0.1793,0.1784,0.1788,0.1783,0.1783,0.1738,0.171,0.1708,0.1671,0.1717,0.1706,0.1657,0.1635,0.1686,0.1734,0.1747,0.1569,0.1567,0.1566,0.1565,0,0,0.1878,0.1863,0.1844,0.1832,0.1834,0.1822,0.1815,0.18,0.1742,0.1746,0.1731,0.167,0.1623,0.1623,0.164,0.1592,0.1601,0.159,0.1648,0.1658,0.1666,0.1715,0.1729,0.1562,0.1561,0.1561,0.156,0,0.1899,0.1889,0.1862,0.1848,0.183,0.1816,0.1816,0.1778,0.1776,0.1727,0.1706,0.1691,0.159,0.1584,0.1562,0.1569,0.1553,0.1549,0.1616,0.1634,0.1646,0.1656,0.1707,0.172,0.1556,0.1557,0.1557,0,0.1938,0.1917,0.1894,0.1858,0.1836,0.1823,0.1814,0.1785,0.1779,0.1711,0.1681,0.164,0.1578,0.1542,0.152,0.1505,0.1516,0.1474,0.1481,0.1493,0.151,0.1522,0.1534,0.1391,0.1391,0.1391,0,0,0.1952,0.1917,0.1893,0.1857,0.1857,0.1822,0.1806,0.1792,0.1744,0.1726,0.1677,0.1629,0.1587,0.1558,0.15,0.1449,0.1452,0.1458,0.1466,0.1473,0.1489,0.1507,0.1519,0.1391,0.1391,0.1391,0,0,0.1946,0.1908,0.1909,0.1879,0.1848,0.1794,0.1783,0.1773,0.1722,0.1727,0.1669,0.1651,0.1609,0.1556,0.1558,0.1515,0.1478,0.1474,0.156,0.1568,0.1576,0.1614,0.153,0,0,0,0,0,0.1932,0.1913,0.1914,0.1907,0.1844,0.1793,0.1783,0.1769,0.1783,0.1765,0.172,0.1694,0.1558,0.1557,0.1534,0.1559,0.1385,0.1386,0.1387,0.1484,0.1493,0.1502,0,0,0,0,0,0,0.1929,0.1918,0.1915,0.1863,0.185,0.1793,0.1801,0.1794,0.1784,0.1785,0.1704,0.1691,0.1645,0.1566,0.1545,0.1571,0.1536,0.1385,0.1386,0.1387,0.1487,0.1495,0.1502,0,0,0,0,0,0.1926,0.1917,0.1825,0.1862,0.1851,0.1828,0.1802,0.1797,0.1782,0.1714,0.1702,0.178,0.1645,0.1625,0.1553,0.1583,0.155,0.1543,0.1386,0.1386,0.1387,0.1491,0,0,0,0,0,0,0.1924,0.1894,0.1822,0.1818,0.1885,0.1831,0.1822,0.1799,0.1709,0.1701,0.1785,0.1787,0.1644,0.1629,0.1614,0.1592,0.1561,0.1554,0.1549,0.1386,0.1387,0.1387,0,0,0,0,0,0,0.19,0.189,0.1819,0.1848,0.1846,0.1833,0.1826,0.1742,0.1707,0.1783,0.1783,0.1787,0.1663,0.1631,0.1619,0.1489,0.157,0.1563,0.1558,0.1555,0.1387,0.1387,0,0,0,0,0,0,0.1895,0.1887,0.1848,0.1847,0.1845,0.179,0.1756,0.1685,0.1761,0.1784,0.1766,0.1768,0.1665,0.1652,0.1623,0.1498,0.1491,0.157,0.1565,0.1561,0.1559,0,0,0,0,0,0,0,0.1892,0.1952,0.1858,0.1846,0.1845,0.1781,0.1779,0.1777,0.1761,0.1763,0.1765,0.1767,0.1611,0.1604,0.1595,0.1506,0,0,0.1571,0.1567,0,0,0,0,0,0,0,0,0.1955,0.1953,0.1858,0.1857,0.1857,0.1781,0.1779,0.1777,0.1762,0.1763,0.1765,0.1766,0.1609,0.1603,0.1596,0,0,0,0,0,0,0,0,0,0,0,0,0,0,0,0.1857,0.1857,0,0.1781,0.1779,0.1778,0.1762,0.1763,0.1764,0.1766,0.1607,0.1602,0.1597,0,0,0,0,0,0,0,0,0,0,0,0,0,0,0,0,0,0,0,0,0,0,0,0,0,0,0,0,0,0,0,0,0,0,0,0,0,0,0,0,0,0,0,0,0,0,0,0,0,0,0,0,0,0,0,0,0,0,0,0,0,0,0,0,0,0,0,0,0]}],[{"header":{"parameterUnit":"kt","parameterCategory":2,"dx":1,"dy":1,"la1":30.253999710083008,"la2":30.299108505249023,"lo1":-89.0895004272461,"lo2":-89.04439544677734,"nx":28,"ny":28,"refTime":"2022-09-28T21:00:00:Z","depth":"0","parameterNumber":3,"parameterNumberName":"V-component_of_CURRENTS"},"data":[-0.1687,-0.1286,-0.1124,-0.053,-0.0243,0.0227,0.0475,0.0791,0.0942,0.1118,0.1041,0.0894,0.0271,-0.0344,-0.0893,-0.0993,-0.1214,-0.1144,-0.1332,-0.1238,-0.1234,-0.123,-0.1239,-0.1279,-0.128,-0.1495,-0.1498,-0.15,-0.1879,-0.1647,-0.1308,-0.0851,-0.0508,-0.0411,-0.0017,0.024,0.0602,0.0724,0.09,0.07,0.045,0.0018,-0.0489,-0.0721,-0.0811,-0.089,-0.0946,-0.1007,-0.0772,-0.0757,-0.0695,-0.0695,-0.0694,-0.0694,-0.0694,-0.0694,-0.2174,-0.1973,-0.1556,-0.121,-0.0933,-0.0588,-0.0321,-0.0085,0.0202,0.0492,0.0437,0.0555,0.025,-0.0059,-0.0238,-0.0625,-0.065,-0.0743,-0.0837,-0.0844,-0.0894,-0.0612,-0.0533,-0.0534,-0.0535,-0.0536,-0.0537,0,-0.2316,-0.216,-0.1857,-0.1468,-0.1216,-0.0916,-0.0632,-0.0498,-0.028,-0.0118,0.0096,0.0156,0.0007,-0.0106,-0.0357,-0.0477,-0.083,-0.0722,-0.0902,-0.0917,-0.0921,-0.1005,-0.0779,-0.0694,-0.0696,-0.0697,-0.0699,-0.0699,-0.2467,-0.228,-0.1841,-0.1654,-0.1472,-0.1217,-0.0999,-0.0819,-0.0633,-0.0424,-0.0307,-0.0312,-0.0215,-0.0383,-0.0567,-0.0722,-0.0872,-0.0766,-0.0799,-0.095,-0.1063,-0.1083,-0.1142,-0.072,-0.0718,-0.0716,-0.0714,0,-0.2506,-0.2325,-0.2002,-0.1641,-0.154,-0.1363,-0.1044,-0.086,-0.0761,-0.0538,-0.0516,-0.0474,-0.0505,-0.065,-0.0764,-0.085,-0.0966,-0.0928,-0.085,-0.0855,-0.0983,-0.1071,-0.1065,-0.1129,-0.091,-0.0909,-0.0908,0,-0.2494,-0.2331,-0.2011,-0.184,-0.1586,-0.14,-0.1155,-0.1003,-0.0845,-0.0657,-0.0689,-0.0584,-0.0752,-0.0785,-0.0889,-0.0938,-0.0955,-0.0992,-0.1009,-0.0952,-0.0945,-0.1024,-0.1104,-0.1051,-0.1051,-0.1051,-0.1051,0,-0.2576,-0.2248,-0.2012,-0.1897,-0.1542,-0.1419,-0.1275,-0.1087,-0.0951,-0.0845,-0.078,-0.0768,-0.0764,-0.0844,-0.0927,-0.0967,-0.0994,-0.1049,-0.1028,-0.1026,-0.0906,-0.0893,-0.1047,-0.1051,-0.1051,-0.1051,-0.1051,0,-0.2536,-0.2295,-0.2049,-0.1685,-0.162,-0.1512,-0.1257,-0.1149,-0.1008,-0.0961,-0.0903,-0.0896,-0.0869,-0.0958,-0.0976,-0.0998,-0.1039,-0.1082,-0.1083,-0.0963,-0.1004,-0.0954,-0.0949,-0.1105,-0.1124,-0.1125,-0.1125,0,-0.2576,-0.2271,-0.2099,-0.1886,-0.172,-0.1582,-0.1474,-0.1336,-0.1262,-0.1165,-0.114,-0.1041,-0.1083,-0.1044,-0.1073,-0.106,-0.1078,-0.1086,-0.1067,-0.1065,-0.1035,-0.1049,-0.0974,-0.0961,-0.113,-0.113,-0.1129,0,-0.2592,-0.2209,-0.2198,-0.2021,-0.1809,-0.1721,-0.1624,-0.1461,-0.135,-0.1351,-0.1231,-0.1145,-0.1135,-0.105,-0.1012,-0.1037,-0.1088,-0.1067,-0.1064,-0.1089,-0.1116,-0.1064,-0.1056,-0.1136,-0.1135,-0.1134,-0.1133,0,-0.2378,-0.2232,-0.2192,-0.1934,-0.1861,-0.1782,-0.1657,-0.1604,-0.1559,-0.1483,-0.1371,-0.1313,-0.1165,-0.1174,-0.1114,-0.1052,-0.1062,-0.1065,-0.1039,-0.1059,-0.1057,-0.1054,-0.1052,-0.105,-0.1048,-0.1047,0,0,-0.2427,-0.2223,-0.2093,-0.1952,-0.1862,-0.1793,-0.17,-0.1658,-0.1533,-0.1461,-0.1506,-0.1298,-0.1222,-0.1061,-0.1072,-0.1045,-0.1053,-0.102,-0.1046,-0.1047,-0.1047,-0.1046,-0.1046,-0.1044,-0.1043,-0.1042,-0.1042,0,-0.2294,-0.2191,-0.2092,-0.1995,-0.1848,-0.1773,-0.1753,-0.1643,-0.1604,-0.1516,-0.1425,-0.1351,-0.1225,-0.1125,-0.1052,-0.1033,-0.1003,-0.1029,-0.1028,-0.1033,-0.1036,-0.1038,-0.1039,-0.104,-0.1037,-0.1038,-0.1038,0,-0.2221,-0.2043,-0.2011,-0.1828,-0.1781,-0.17,-0.1658,-0.1614,-0.1543,-0.1451,-0.1375,-0.1309,-0.1173,-0.11,-0.1056,-0.1041,-0.0967,-0.0969,-0.0976,-0.0914,-0.0913,-0.0917,-0.092,-0.0882,-0.0883,-0.0883,0,0,-0.2109,-0.1986,-0.1835,-0.1799,-0.1762,-0.1671,-0.1646,-0.159,-0.1501,-0.1477,-0.1393,-0.1292,-0.1189,-0.1136,-0.1045,-0.0977,-0.0938,-0.0957,-0.0964,-0.0971,-0.0914,-0.0914,-0.0917,-0.0883,-0.0883,-0.0883,0,0,-0.2093,-0.1854,-0.1804,-0.1734,-0.1663,-0.1562,-0.1579,-0.152,-0.1457,-0.1449,-0.1333,-0.1302,-0.1214,-0.1143,-0.1163,-0.1045,-0.1007,-0.1,-0.1111,-0.1118,-0.1125,-0.1082,-0.1099,0,0,0,0,0,-0.1885,-0.1865,-0.1821,-0.1792,-0.1646,-0.1574,-0.1564,-0.1514,-0.1491,-0.1498,-0.1403,-0.135,-0.1135,-0.115,-0.1121,-0.112,-0.089,-0.0889,-0.0888,-0.1012,-0.1021,-0.1028,0,0,0,0,0,0,-0.1873,-0.1834,-0.1822,-0.1709,-0.1676,-0.1574,-0.1532,-0.152,-0.149,-0.1486,-0.137,-0.1346,-0.1273,-0.1159,-0.1134,-0.1135,-0.1107,-0.089,-0.0889,-0.0888,-0.1015,-0.1022,-0.1028,0,0,0,0,0,-0.1862,-0.1831,-0.1596,-0.1712,-0.1684,-0.1606,-0.1533,-0.1522,-0.1509,-0.1382,-0.136,-0.147,-0.1276,-0.1248,-0.1144,-0.1149,-0.1124,-0.1115,-0.0889,-0.0888,-0.0888,-0.1018,0,0,0,0,0,0,-0.1855,-0.1851,-0.1592,-0.1584,-0.1707,-0.1614,-0.1591,-0.1524,-0.1405,-0.1385,-0.1474,-0.1471,-0.1278,-0.1255,-0.1234,-0.1159,-0.1137,-0.1128,-0.1122,-0.0889,-0.0888,-0.0887,0,0,0,0,0,0,-0.1867,-0.1844,-0.1588,-0.1584,-0.1576,-0.1621,-0.16,-0.1508,-0.1401,-0.1505,-0.1499,-0.1473,-0.127,-0.1261,-0.1244,-0.1106,-0.1147,-0.1139,-0.1133,-0.1129,-0.0888,-0.0887,0,0,0,0,0,0,-0.1858,-0.1838,-0.1587,-0.1581,-0.1573,-0.149,-0.1537,-0.1372,-0.1458,-0.151,-0.1456,-0.1455,-0.1273,-0.1257,-0.1251,-0.1122,-0.111,-0.1147,-0.1141,-0.1137,-0.1134,0,0,0,0,0,0,0,-0.1851,-0.1974,-0.1627,-0.1577,-0.1571,-0.1509,-0.1508,-0.1507,-0.1458,-0.1457,-0.1456,-0.1455,-0.1197,-0.1188,-0.1178,-0.1134,0,0,-0.1148,-0.1144,0,0,0,0,0,0,0,0,-0.1983,-0.1976,-0.1626,-0.1624,-0.1622,-0.1509,-0.1508,-0.1507,-0.1458,-0.1457,-0.1456,-0.1456,-0.1194,-0.1187,-0.1179,0,0,0,0,0,0,0,0,0,0,0,0,0,0,0,-0.1626,-0.1624,0,-0.1509,-0.1508,-0.1508,-0.1458,-0.1457,-0.1456,-0.1456,-0.1192,-0.1186,-0.118,0,0,0,0,0,0,0,0,0,0,0,0,0,0,0,0,0,0,0,0,0,0,0,0,0,0,0,0,0,0,0,0,0,0,0,0,0,0,0,0,0,0,0,0,0,0,0,0,0,0,0,0,0,0,0,0,0,0,0,0,0,0,0,0,0,0,0,0,0]}]],[[{"header":{"parameterUnit":"kt","parameterCategory":2,"dx":1,"dy":1,"la1":30.253999710083008,"la2":30.299108505249023,"lo1":-89.0895004272461,"lo2":-89.04439544677734,"nx":28,"ny":28,"refTime":"2022-09-28T21:00:00:Z","depth":"2","parameterNumber":2,"parameterNumberName":"U-component_of_CURRENTS"},"data":[0.1879,0.2049,0.212,0.2314,0.2417,0.2479,0.2497,0.2395,0.2263,0.2022,0.1794,0.1749,0.1628,0.1192,0.1106,0.091,0.1025,0.0859,0.1574,0.1397,0.1427,0.1463,0.1308,0,0,0,0,0,0.1784,0.1886,0.2031,0.2172,0.2287,0.2303,0.2412,0.2395,0.2476,0.2383,0.2424,0.2026,0.1814,0.1674,0.1396,0.1373,0.1288,0.1282,0.1096,0.1134,0.1167,0.1037,0.0803,0.08,0.0798,0.0796,0,0,0.161,0.1725,0.1825,0.1967,0.2081,0.2175,0.2247,0.2368,0.2477,0.2507,0.2644,0.2527,0.2382,0.2099,0.2002,0.186,0.2037,0.1814,0.1819,0.183,0.1741,0.171,0.1689,0.1693,0.1696,0.1699,0.1702,0,0.1491,0.1524,0.1621,0.1771,0.1885,0.1998,0.2152,0.2231,0.2336,0.2427,0.2571,0.262,0.264,0.2434,0.2355,0.2285,0.2104,0.2057,0.2433,0.1685,0.1649,0.1622,0.1628,0.1631,0.1634,0.1637,0.1639,0.164,0.1365,0.1412,0.1534,0.1613,0.1684,0.1827,0.1925,0.199,0.2115,0.2254,0.2348,0.2446,0.2525,0.2574,0.2456,0.2423,0.2439,0.2134,0.1974,0.227,0.2247,0.2233,0.222,0.1679,0.1674,0.167,0.1667,0,0.1305,0.1339,0.1441,0.1547,0.1587,0.1689,0.1832,0.1934,0.1989,0.2149,0.2184,0.2243,0.2333,0.233,0.237,0.2302,0.2322,0.2326,0.2038,0.1994,0.2221,0.2209,0.2353,0.2354,0.2355,0.2356,0.2357,0,0.1258,0.1333,0.1419,0.1466,0.158,0.1607,0.1744,0.1786,0.1884,0.2007,0.2005,0.2109,0.2096,0.2166,0.214,0.2193,0.2214,0.2151,0.2142,0.1872,0.1849,0.202,0.2004,0.2146,0.2144,0.2143,0.2143,0,0.1246,0.1302,0.1391,0.1415,0.1487,0.1546,0.1606,0.1697,0.1779,0.1871,0.1928,0.1987,0.2053,0.2054,0.2081,0.2029,0.2169,0.2086,0.2099,0.2099,0.1838,0.1812,0.2141,0.2141,0.2141,0.214,0.214,0,0.1216,0.1282,0.1346,0.1414,0.1433,0.147,0.1605,0.165,0.1737,0.1776,0.1837,0.1855,0.1943,0.1885,0.1973,0.1932,0.1937,0.1949,0.1953,0.1918,0.1858,0.1712,0.1762,0.1979,0.1977,0.1976,0.1974,0,0.1249,0.1305,0.1306,0.135,0.1377,0.1415,0.1469,0.1524,0.1587,0.1664,0.1701,0.1762,0.1731,0.1765,0.18,0.1819,0.1871,0.1805,0.1834,0.1836,0.1841,0.1945,0.165,0.1746,0.1953,0.1955,0.1957,0,0.1255,0.1264,0.1272,0.1321,0.1363,0.1365,0.1414,0.1477,0.1546,0.1558,0.1651,0.1674,0.1684,0.1691,0.1699,0.1742,0.1836,0.1705,0.1703,0.1777,0.1918,0.1916,0.193,0.1799,0.1801,0.1803,0.194,0,0.1336,0.1322,0.1298,0.135,0.1351,0.1334,0.137,0.1395,0.1441,0.1468,0.1531,0.1524,0.1553,0.1568,0.1557,0.1639,0.163,0.158,0.1566,0.1623,0.1673,0.1687,0.1495,0.1493,0.1491,0.149,0,0,0.1404,0.1372,0.1351,0.1364,0.1374,0.1371,0.1379,0.1388,0.1377,0.1416,0.1404,0.144,0.1431,0.1498,0.152,0.149,0.1505,0.1513,0.1581,0.1592,0.1601,0.1653,0.1668,0.1487,0.1486,0.1486,0.1485,0,0.1437,0.1413,0.1381,0.1378,0.1365,0.1364,0.1367,0.1341,0.1373,0.138,0.1393,0.1415,0.1397,0.1424,0.1429,0.1464,0.1465,0.146,0.1543,0.1566,0.1579,0.159,0.1644,0.1658,0.1481,0.1481,0.1481,0,0.1524,0.1519,0.1467,0.143,0.1405,0.1395,0.1388,0.1337,0.1366,0.1336,0.138,0.1365,0.1351,0.1366,0.1373,0.1363,0.1434,0.1388,0.1396,0.1404,0.1426,0.144,0.1453,0.1296,0.1296,0.1296,0,0,0.159,0.1546,0.1503,0.1432,0.1421,0.1398,0.137,0.1363,0.1339,0.134,0.1348,0.1349,0.1349,0.1359,0.1333,0.1341,0.1343,0.1371,0.1379,0.1387,0.14,0.1423,0.1436,0.1295,0.1295,0.1295,0,0,0.1593,0.1537,0.1555,0.1466,0.1437,0.1368,0.1331,0.1347,0.1341,0.1351,0.135,0.1347,0.136,0.1335,0.133,0.1359,0.1316,0.1316,0.14,0.141,0.1418,0.1443,0.1322,0,0,0,0,0,0.1613,0.1544,0.1562,0.1541,0.1439,0.1366,0.1354,0.1333,0.1366,0.1356,0.1362,0.136,0.1334,0.1328,0.132,0.1371,0.1288,0.129,0.1291,0.1397,0.1408,0.1417,0,0,0,0,0,0,0.1604,0.1581,0.1562,0.1489,0.1464,0.1368,0.1384,0.1378,0.1367,0.1371,0.1358,0.1358,0.134,0.1331,0.1324,0.1373,0.1324,0.1289,0.129,0.1291,0.1401,0.141,0.1418,0,0,0,0,0,0.1597,0.1578,0.1422,0.149,0.1469,0.1421,0.1387,0.1382,0.1391,0.1344,0.1345,0.138,0.1338,0.1335,0.1327,0.1378,0.1328,0.1326,0.1289,0.129,0.1291,0.1405,0,0,0,0,0,0,0.1592,0.1584,0.1418,0.141,0.1512,0.1428,0.1416,0.1386,0.1368,0.1364,0.1363,0.1366,0.1337,0.1334,0.1331,0.1383,0.1332,0.1329,0.1328,0.129,0.1291,0.1291,0,0,0,0,0,0,0.1593,0.1578,0.1414,0.1444,0.144,0.1434,0.1423,0.1391,0.137,0.139,0.139,0.1365,0.1354,0.1333,0.1331,0.1279,0.1335,0.1332,0.1331,0.133,0.1291,0.1291,0,0,0,0,0,0,0.1586,0.1573,0.1447,0.1443,0.144,0.1355,0.1407,0.1317,0.1353,0.1394,0.1359,0.1362,0.1354,0.1351,0.1331,0.128,0.1279,0.1335,0.1333,0.1332,0.1331,0,0,0,0,0,0,0,0.158,0.1677,0.1455,0.1443,0.144,0.1334,0.1333,0.1331,0.1354,0.1356,0.1358,0.1361,0.1348,0.1345,0.1343,0.1281,0,0,0.1335,0.1334,0,0,0,0,0,0,0,0,0.1681,0.1678,0.1455,0.1453,0.1451,0.1334,0.1333,0.1332,0.1354,0.1356,0.1358,0.136,0.1347,0.1345,0.1343,0,0,0,0,0,0,0,0,0,0,0,0,0,0,0,0.1455,0.1453,0,0.1334,0.1333,0.1332,0.1354,0.1356,0.1357,0.1359,0.1347,0.1345,0.1343,0,0,0,0,0,0,0,0,0,0,0,0,0,0,0,0,0,0,0,0,0,0,0,0,0,0,0,0,0,0,0,0,0,0,0,0,0,0,0,0,0,0,0,0,0,0,0,0,0,0,0,0,0,0,0,0,0,0,0,0,0,0,0,0,0,0,0,0,0]}],[{"header":{"parameterUnit":"kt","parameterCategory":2,"dx":1,"dy":1,"la1":30.253999710083008,"la2":30.299108505249023,"lo1":-89.0895004272461,"lo2":-89.04439544677734,"nx":28,"ny":28,"refTime":"2022-09-28T21:00:00:Z","depth":"2","parameterNumber":3,"parameterNumberName":"V-component_of_CURRENTS"},"data":[-0.0669,-0.039,-0.0229,0.0234,0.0393,0.0791,0.1044,0.1378,0.1513,0.1744,0.1703,0.1686,0.1252,0.1036,0.0785,0.054,0.0349,0.0491,0.0315,0.0344,0.032,0.0044,0.0141,0,0,0,0,0,-0.0759,-0.0596,-0.0382,-0.0106,0.0138,0.019,0.0547,0.0817,0.117,0.1269,0.1431,0.1297,0.1191,0.0811,0.0431,0.0233,0.0183,0.0126,0.0136,0.0111,0.0087,0.0159,0.0342,0.0341,0.034,0.0338,0,0,-0.0876,-0.0803,-0.0546,-0.0345,-0.02,0.0085,0.03,0.05,0.0765,0.1037,0.0956,0.1046,0.0832,0.0567,0.0336,0.0009,-0.0025,-0.0101,-0.0112,-0.0127,-0.0061,-0.004,0.0062,0.006,0.0058,0.0056,0.0055,0,-0.0875,-0.0863,-0.0699,-0.0497,-0.0353,-0.0174,0.0005,0.0117,0.0279,0.0419,0.0607,0.0657,0.0467,0.0381,0.0103,-0.0011,-0.0293,-0.0257,-0.0524,-0.0195,-0.0177,-0.0202,-0.0219,-0.0111,-0.0114,-0.0116,-0.0118,-0.0119,-0.0906,-0.0831,-0.0661,-0.0563,-0.0491,-0.0402,-0.0241,-0.0129,-0.0008,0.0123,0.0224,0.0159,0.0232,0.0034,-0.0163,-0.0339,-0.0459,-0.0328,-0.0321,-0.0564,-0.0589,-0.0593,-0.0597,-0.0155,-0.015,-0.0147,-0.0144,0,-0.0923,-0.0811,-0.0709,-0.0521,-0.0464,-0.0422,-0.0253,-0.0137,-0.0093,0.0031,0.003,0.0031,-0.0046,-0.0221,-0.0367,-0.0452,-0.0548,-0.0565,-0.0404,-0.0401,-0.0607,-0.0608,-0.0565,-0.0563,-0.0561,-0.056,-0.0558,0,-0.0887,-0.0862,-0.0679,-0.0594,-0.0489,-0.0382,-0.0297,-0.0212,-0.0126,-0.0027,-0.0125,-0.0065,-0.0258,-0.033,-0.0457,-0.0533,-0.0552,-0.0598,-0.0618,-0.0479,-0.0465,-0.0614,-0.0609,-0.0656,-0.0655,-0.0655,-0.0654,0,-0.0957,-0.0776,-0.0665,-0.0608,-0.0399,-0.0366,-0.0301,-0.0235,-0.0189,-0.0197,-0.0146,-0.0232,-0.0267,-0.0362,-0.0498,-0.0531,-0.059,-0.0634,-0.0629,-0.0629,-0.0427,-0.0408,-0.0654,-0.0654,-0.0654,-0.0654,-0.0653,0,-0.0913,-0.08,-0.0656,-0.046,-0.0419,-0.0365,-0.028,-0.0252,-0.0224,-0.0223,-0.0248,-0.0296,-0.0374,-0.0423,-0.0523,-0.0538,-0.0606,-0.0661,-0.0664,-0.0528,-0.057,-0.0487,-0.0465,-0.0735,-0.0735,-0.0736,-0.0736,0,-0.0993,-0.0809,-0.0681,-0.056,-0.0454,-0.0409,-0.0363,-0.0336,-0.035,-0.034,-0.0398,-0.0397,-0.047,-0.0494,-0.0545,-0.0601,-0.0647,-0.0641,-0.0639,-0.0637,-0.0612,-0.0623,-0.0455,-0.0478,-0.0738,-0.0738,-0.0737,0,-0.1007,-0.0716,-0.0714,-0.0653,-0.0557,-0.0489,-0.0464,-0.0424,-0.0399,-0.0446,-0.0438,-0.0463,-0.0495,-0.0472,-0.0533,-0.0578,-0.0654,-0.0618,-0.0615,-0.0676,-0.0698,-0.0637,-0.063,-0.069,-0.0689,-0.0689,-0.0739,0,-0.0923,-0.0812,-0.0747,-0.0642,-0.059,-0.0521,-0.048,-0.0483,-0.051,-0.0516,-0.0524,-0.0532,-0.0498,-0.0546,-0.0553,-0.0581,-0.0599,-0.0589,-0.0594,-0.0605,-0.0627,-0.0626,-0.0598,-0.0595,-0.0593,-0.0592,0,0,-0.1068,-0.0876,-0.0774,-0.0701,-0.0649,-0.0623,-0.0562,-0.0566,-0.0533,-0.0545,-0.056,-0.0525,-0.0528,-0.052,-0.0539,-0.054,-0.0555,-0.0578,-0.0591,-0.0591,-0.0591,-0.0614,-0.0615,-0.0588,-0.0587,-0.0586,-0.0586,0,-0.1001,-0.0905,-0.0801,-0.0748,-0.0665,-0.0622,-0.061,-0.0545,-0.0576,-0.0561,-0.0558,-0.0556,-0.0541,-0.053,-0.0515,-0.0521,-0.0541,-0.0544,-0.0574,-0.0576,-0.0579,-0.0582,-0.0605,-0.0608,-0.0581,-0.0581,-0.0581,0,-0.1063,-0.0958,-0.0875,-0.0735,-0.0696,-0.0621,-0.0621,-0.055,-0.0543,-0.0532,-0.0554,-0.0542,-0.0496,-0.0501,-0.0501,-0.0505,-0.0533,-0.0529,-0.0536,-0.0473,-0.047,-0.0474,-0.0477,-0.0443,-0.0443,-0.0443,0,0,-0.1079,-0.0952,-0.0822,-0.0721,-0.0678,-0.0638,-0.0602,-0.058,-0.0532,-0.0535,-0.0544,-0.0527,-0.0499,-0.0512,-0.0471,-0.0499,-0.0464,-0.0521,-0.0527,-0.0533,-0.0476,-0.0473,-0.0476,-0.0445,-0.0445,-0.0445,0,0,-0.1076,-0.0865,-0.0877,-0.0712,-0.0665,-0.0561,-0.0525,-0.0531,-0.053,-0.0537,-0.0527,-0.0522,-0.0514,-0.0493,-0.0512,-0.0513,-0.0471,-0.0468,-0.058,-0.0587,-0.0593,-0.0535,-0.0512,0,0,0,0,0,-0.0996,-0.0881,-0.0893,-0.0852,-0.0675,-0.0568,-0.0558,-0.0513,-0.0538,-0.054,-0.0528,-0.0537,-0.0481,-0.0497,-0.0497,-0.0552,-0.0464,-0.046,-0.0457,-0.0601,-0.0609,-0.0615,0,0,0,0,0,0,-0.0978,-0.0927,-0.0894,-0.0772,-0.073,-0.0572,-0.0567,-0.0558,-0.0536,-0.0537,-0.0538,-0.0536,-0.0517,-0.0498,-0.0498,-0.055,-0.0513,-0.0462,-0.0459,-0.0457,-0.0603,-0.061,-0.0615,0,0,0,0,0,-0.0964,-0.0922,-0.0631,-0.0778,-0.0742,-0.0653,-0.0569,-0.0561,-0.0582,-0.0516,-0.0516,-0.0543,-0.0517,-0.0517,-0.0498,-0.0551,-0.0513,-0.0513,-0.046,-0.0458,-0.0456,-0.0607,0,0,0,0,0,0,-0.0953,-0.0977,-0.0626,-0.0615,-0.0774,-0.0665,-0.0642,-0.0565,-0.0567,-0.0558,-0.0516,-0.0516,-0.0518,-0.0517,-0.0517,-0.0553,-0.0513,-0.0513,-0.0513,-0.0459,-0.0457,-0.0456,0,0,0,0,0,0,-0.0997,-0.0969,-0.0622,-0.062,-0.061,-0.0676,-0.0654,-0.0652,-0.057,-0.0575,-0.0569,-0.0516,-0.051,-0.0517,-0.0517,-0.0518,-0.0513,-0.0513,-0.0513,-0.0513,-0.0457,-0.0456,0,0,0,0,0,0,-0.0986,-0.0963,-0.0624,-0.0617,-0.0609,-0.0514,-0.068,-0.0514,-0.0522,-0.058,-0.0522,-0.0521,-0.051,-0.051,-0.0517,-0.0519,-0.0518,-0.0513,-0.0513,-0.0513,-0.0513,0,0,0,0,0,0,0,-0.0977,-0.1125,-0.0653,-0.0615,-0.0608,-0.0514,-0.0515,-0.0515,-0.0522,-0.0522,-0.0522,-0.0521,-0.0513,-0.0513,-0.0513,-0.0519,0,0,-0.0513,-0.0513,0,0,0,0,0,0,0,0,-0.1136,-0.1128,-0.0652,-0.0648,-0.0644,-0.0514,-0.0515,-0.0515,-0.0522,-0.0522,-0.0522,-0.0522,-0.0513,-0.0513,-0.0513,0,0,0,0,0,0,0,0,0,0,0,0,0,0,0,-0.0652,-0.0649,0,-0.0514,-0.0515,-0.0515,-0.0522,-0.0522,-0.0522,-0.0522,-0.0513,-0.0513,-0.0513,0,0,0,0,0,0,0,0,0,0,0,0,0,0,0,0,0,0,0,0,0,0,0,0,0,0,0,0,0,0,0,0,0,0,0,0,0,0,0,0,0,0,0,0,0,0,0,0,0,0,0,0,0,0,0,0,0,0,0,0,0,0,0,0,0,0,0,0,0]}]],[[{"header":{"parameterUnit":"kt","parameterCategory":2,"dx":1,"dy":1,"la1":30.253999710083008,"la2":30.299108505249023,"lo1":-89.0895004272461,"lo2":-89.04439544677734,"nx":28,"ny":28,"refTime":"2022-09-28T21:00:00:Z","depth":"4","parameterNumber":2,"parameterNumberName":"U-component_of_CURRENTS"},"data":[-0.049,-0.0441,-0.0435,-0.0339,-0.0266,-0.0188,-0.0102,0.0041,0.012,0.0356,0.0417,0.0602,0.0713,0.0828,0.0882,0.0905,0.0874,0.11,0.1097,0.1097,0.1103,0.1109,0.1085,0,0,0,0,0,-0.0499,-0.0467,-0.043,-0.0326,-0.0271,-0.0208,-0.0073,0.0013,0.0246,0.0388,0.0551,0.0671,0.0825,0.0895,0.0897,0.0991,0.1045,0.0983,0.0973,0.1101,0.1108,0.1082,0,0,0,0,0,0,-0.0535,-0.0496,-0.0467,-0.0361,-0.0278,-0.0187,-0.0108,0.0055,0.023,0.0614,0.0647,0.0878,0.1029,0.1064,0.1105,0.1137,0.1078,0.102,0.1031,0.1039,0.1005,0.0896,0.0895,0,0,0,0,0,-0.053,-0.0513,-0.048,-0.0394,-0.0297,-0.0183,-0.0032,0.0078,0.0368,0.0568,0.08,0.0931,0.1053,0.1118,0.119,0.1183,0.1257,0.1234,0.1236,0.1161,0.1089,0.1054,0.1047,0.1137,0.1138,0.1139,0.1139,0,-0.0513,-0.0505,-0.0428,-0.0373,-0.0329,-0.0173,-0.0063,0.0175,0.0312,0.0677,0.0765,0.099,0.1124,0.1188,0.1264,0.1283,0.1266,0.1256,0.1177,0.11,0.1066,0.1056,0.1046,0.1145,0.1145,0.1144,0.1144,0,-0.0516,-0.0488,-0.0442,-0.0339,-0.0289,-0.0176,0.0041,0.0177,0.0429,0.0661,0.0758,0.1005,0.1129,0.1222,0.132,0.1275,0.1295,0.1276,0.1291,0.1261,0.1064,0.1052,0.1155,0.1153,0.1151,0.1149,0.1148,0,-0.0519,-0.0482,-0.0415,-0.0407,-0.0272,-0.016,0.0023,0.0181,0.0423,0.0612,0.0796,0.093,0.1077,0.1178,0.1193,0.1219,0.13,0.1163,0.1139,0.1168,0.1155,0.1181,0.1168,0.1292,0.1292,0.1292,0.1292,0,-0.055,-0.0467,-0.0417,-0.0385,-0.0256,-0.0168,-0.0059,0.018,0.0327,0.0579,0.0713,0.0896,0.1008,0.1075,0.1151,0.1121,0.1263,0.1202,0.1122,0.1112,0.1176,0.1163,0.1292,0.1292,0.1292,0.1292,0.1292,0,-0.0547,-0.0533,-0.0463,-0.035,-0.031,-0.0229,-0.0004,0.0114,0.0352,0.0472,0.0646,0.0744,0.0918,0.0883,0.104,0.1018,0.1041,0.1053,0.1054,0.0999,0.0912,0.0845,0.0987,0.0985,0.0983,0.0982,0.098,0,-0.0556,-0.052,-0.0502,-0.0406,-0.0361,-0.0252,-0.0127,0.0029,0.0161,0.0321,0.0443,0.0612,0.0631,0.0732,0.0809,0.0889,0.0943,0.0889,0.0965,0.0966,0.0834,0.0954,0.0949,0.0955,0.0958,0.096,0.0962,0,-0.0567,-0.0561,-0.0538,-0.0511,-0.0399,-0.0341,-0.0211,-0.0061,0.0054,0.0174,0.0317,0.0497,0.0571,0.0659,0.0731,0.0805,0.0893,0.0824,0.0827,0.0765,0.1013,0.0929,0.0935,0.0929,0.0933,0.0936,0.0944,0,-0.0537,-0.0533,-0.052,-0.0496,-0.0436,-0.0373,-0.0271,-0.0182,-0.0102,-0.0013,0.0174,0.0275,0.045,0.0489,0.0548,0.0716,0.0698,0.0699,0.0661,0.0772,0.0758,0.0772,0.0602,0.0602,0.0602,0.0601,0,0,-0.0508,-0.0552,-0.0571,-0.054,-0.0485,-0.0423,-0.0367,-0.0305,-0.0175,-0.009,-0.0093,0.0174,0.0248,0.0433,0.0504,0.0536,0.0566,0.0566,0.0728,0.0742,0.0755,0.0747,0.076,0.0601,0.0601,0.0601,0.0601,0,-0.0521,-0.0549,-0.0588,-0.0549,-0.0479,-0.0433,-0.0413,-0.0328,-0.0276,-0.0149,-0.0083,0.004,0.0207,0.0305,0.0373,0.0518,0.0515,0.0571,0.0655,0.0722,0.0736,0.0749,0.0743,0.0756,0.06,0.06,0.06,0,-0.0517,-0.0522,-0.0566,-0.0543,-0.0507,-0.0453,-0.0448,-0.0383,-0.032,-0.0266,-0.014,-0.0058,0.0062,0.0209,0.0281,0.0273,0.0474,0.0431,0.0437,0.0462,0.053,0.0547,0.0563,0.035,0.0349,0.0347,0,0,-0.0507,-0.0572,-0.0529,-0.0537,-0.0511,-0.0465,-0.0436,-0.0398,-0.0318,-0.0287,-0.0204,-0.0086,0.0019,0.0097,0.0189,0.0324,0.0337,0.0394,0.0406,0.0415,0.0445,0.0516,0.0534,0.0342,0.0342,0.0342,0,0,-0.0487,-0.0519,-0.0525,-0.0535,-0.0491,-0.0433,-0.0406,-0.0387,-0.0308,-0.028,-0.0214,-0.0184,-0.0045,0.0017,-0.0061,0.0188,0.0149,0.0166,0.0127,0.0143,0.0155,0.016,-0.0069,0,0,0,0,0,-0.0509,-0.0523,-0.053,-0.0526,-0.05,-0.0443,-0.0434,-0.0392,-0.0384,-0.0373,-0.0271,-0.0268,0.0014,-0.0055,-0.0032,0.0033,0.0272,0.0284,0.0296,0.0276,0.0292,0.0306,0,0,0,0,0,0,-0.0507,-0.0508,-0.0527,-0.0479,-0.047,-0.0445,-0.0434,-0.0424,-0.0384,-0.0381,-0.0286,-0.0266,-0.0217,-0.0066,-0.0045,0.0016,-0.0076,0.0276,0.0287,0.0297,0.0282,0.0295,0.0306,0,0,0,0,0,-0.0505,-0.0505,-0.049,-0.0477,-0.0469,-0.0408,-0.0434,-0.0425,-0.0404,-0.0306,-0.0288,-0.0368,-0.022,-0.0195,-0.0053,0.0007,-0.009,-0.0082,0.0283,0.0292,0.0299,0.0288,0,0,0,0,0,0,-0.0503,-0.0504,-0.0486,-0.0478,-0.0471,-0.0407,-0.0403,-0.0427,-0.0331,-0.0313,-0.0383,-0.0381,-0.0221,-0.0202,-0.0184,0.0003,-0.0101,-0.0093,-0.0089,0.029,0.0296,0.0302,0,0,0,0,0,0,-0.0502,-0.05,-0.0482,-0.0478,-0.047,-0.0407,-0.0403,-0.0327,-0.0327,-0.0415,-0.041,-0.0383,-0.021,-0.0206,-0.0192,-0.0076,-0.011,-0.0103,-0.0098,-0.0094,0.0295,0.03,0,0,0,0,0,0,-0.0499,-0.0497,-0.048,-0.0475,-0.0468,-0.0395,-0.0333,-0.0296,-0.0374,-0.042,-0.0372,-0.0371,-0.0213,-0.02,-0.0198,-0.0089,-0.008,-0.011,-0.0105,-0.0101,-0.0099,0,0,0,0,0,0,0,-0.0497,-0.0535,-0.0514,-0.0472,-0.0467,-0.041,-0.0409,-0.0408,-0.0374,-0.0373,-0.0372,-0.0371,-0.0152,-0.0144,-0.0136,-0.01,0,0,-0.011,-0.0107,0,0,0,0,0,0,0,0,-0.0533,-0.0535,-0.0513,-0.0511,-0.0509,-0.0409,-0.0409,-0.0409,-0.0373,-0.0373,-0.0372,-0.0372,-0.015,-0.0143,-0.0137,0,0,0,0,0,0,0,0,0,0,0,0,0,0,0,-0.0513,-0.0511,0,-0.0409,-0.0409,-0.0409,-0.0373,-0.0373,-0.0372,-0.0372,-0.0148,-0.0142,-0.0137,0,0,0,0,0,0,0,0,0,0,0,0,0,0,0,0,0,0,0,0,0,0,0,0,0,0,0,0,0,0,0,0,0,0,0,0,0,0,0,0,0,0,0,0,0,0,0,0,0,0,0,0,0,0,0,0,0,0,0,0,0,0,0,0,0,0,0,0,0]}],[{"header":{"parameterUnit":"kt","parameterCategory":2,"dx":1,"dy":1,"la1":30.253999710083008,"la2":30.299108505249023,"lo1":-89.0895004272461,"lo2":-89.04439544677734,"nx":28,"ny":28,"refTime":"2022-09-28T21:00:00:Z","depth":"4","parameterNumber":3,"parameterNumberName":"V-component_of_CURRENTS"},"data":[0.1441,0.1536,0.1593,0.1709,0.1796,0.1936,0.199,0.2007,0.1933,0.1921,0.1766,0.1706,0.1445,0.1594,0.1172,0.1131,0.1105,0.0889,0.0883,0.0909,0.0925,0.0938,0.0899,0,0,0,0,0,0.1472,0.152,0.1611,0.1741,0.1863,0.1953,0.2038,0.209,0.2133,0.1977,0.1968,0.1781,0.1483,0.1379,0.1184,0.123,0.1078,0.0995,0.1019,0.0919,0.0936,0.0892,0,0,0,0,0,0,0.1494,0.1543,0.1658,0.1779,0.1897,0.1974,0.2035,0.2057,0.2078,0.2019,0.1964,0.1773,0.1703,0.1425,0.1253,0.108,0.1067,0.1002,0.1013,0.1028,0.1003,0.1059,0.0882,0,0,0,0,0,0.1526,0.1594,0.1662,0.1811,0.191,0.2013,0.213,0.2133,0.2167,0.2173,0.2001,0.1822,0.1662,0.1462,0.1274,0.1127,0.1124,0.1034,0.1044,0.1066,0.1113,0.1097,0.1113,0.1001,0.1003,0.1004,0.1005,0,0.1581,0.1619,0.1775,0.1825,0.1896,0.203,0.209,0.2149,0.217,0.2115,0.2079,0.1951,0.1837,0.1525,0.1406,0.1195,0.1148,0.1079,0.1102,0.1142,0.1119,0.1132,0.1143,0.1019,0.1018,0.1017,0.1016,0,0.1591,0.1667,0.1747,0.1863,0.1913,0.1985,0.2097,0.2122,0.2119,0.2096,0.2069,0.1941,0.1799,0.1669,0.1516,0.1402,0.1253,0.1179,0.1392,0.1368,0.1164,0.117,0.1042,0.1037,0.1033,0.1029,0.1026,0,0.1627,0.1679,0.181,0.1832,0.192,0.1957,0.2029,0.2018,0.2025,0.2013,0.193,0.1866,0.1758,0.1659,0.1569,0.1404,0.1441,0.13,0.1262,0.1427,0.1433,0.1336,0.1332,0.1373,0.1374,0.1374,0.1374,0,0.1596,0.1705,0.1777,0.1801,0.1855,0.1902,0.1948,0.1951,0.1966,0.192,0.1894,0.1804,0.1758,0.167,0.1556,0.1588,0.1458,0.1463,0.1305,0.1299,0.1335,0.1331,0.1374,0.1374,0.1374,0.1374,0.1374,0,0.1593,0.1654,0.1736,0.1781,0.1789,0.1849,0.1873,0.1914,0.1901,0.1885,0.1838,0.1774,0.1716,0.1683,0.1583,0.1622,0.1566,0.1526,0.1523,0.1316,0.1281,0.1461,0.1501,0.1502,0.1503,0.1503,0.1504,0,0.1528,0.1627,0.1642,0.172,0.1746,0.1751,0.1788,0.181,0.1824,0.182,0.1765,0.1729,0.17,0.1669,0.1644,0.1559,0.155,0.1578,0.1425,0.142,0.1343,0.134,0.1529,0.1516,0.1514,0.1513,0.1512,0,0.1458,0.153,0.1544,0.1574,0.1623,0.1643,0.1697,0.1718,0.1745,0.1756,0.176,0.1719,0.1655,0.1616,0.1564,0.1546,0.1566,0.1524,0.1516,0.1564,0.1496,0.1373,0.1355,0.1537,0.1535,0.1534,0.152,0,0.1414,0.1465,0.1493,0.1539,0.1559,0.1606,0.1615,0.1641,0.1675,0.1681,0.1662,0.1591,0.1523,0.1534,0.1512,0.1485,0.1489,0.1429,0.1407,0.1428,0.1419,0.1414,0.1427,0.1424,0.1421,0.1419,0,0,0.1325,0.1389,0.1378,0.1425,0.1452,0.1465,0.1504,0.1535,0.1553,0.1552,0.157,0.1486,0.1444,0.1414,0.1437,0.1398,0.1385,0.1445,0.1411,0.1411,0.141,0.1405,0.1403,0.1414,0.1413,0.1412,0.1411,0,0.1291,0.1324,0.1356,0.1376,0.1426,0.1433,0.1457,0.1476,0.151,0.1532,0.149,0.1452,0.1432,0.1382,0.1362,0.137,0.1347,0.1378,0.1454,0.139,0.1395,0.1397,0.1394,0.1394,0.1404,0.1404,0.1405,0,0.1219,0.1253,0.1264,0.1315,0.1338,0.1368,0.1369,0.1427,0.1474,0.1412,0.1456,0.1406,0.1343,0.134,0.1333,0.1319,0.1309,0.1315,0.1326,0.1297,0.1226,0.123,0.1234,0.119,0.119,0.119,0,0,0.1192,0.1223,0.1237,0.1305,0.1309,0.1342,0.1374,0.1406,0.1414,0.1431,0.1412,0.1379,0.1348,0.135,0.1294,0.1288,0.1227,0.13,0.131,0.1319,0.1297,0.1228,0.1232,0.1192,0.1192,0.1192,0,0,0.1176,0.1191,0.1207,0.1274,0.13,0.1323,0.137,0.1395,0.1412,0.1431,0.1396,0.1389,0.1383,0.133,0.1353,0.1323,0.1264,0.1258,0.1414,0.1425,0.1434,0.1429,0.1335,0,0,0,0,0,0.1125,0.1176,0.119,0.1205,0.1275,0.1305,0.1315,0.1371,0.1403,0.1434,0.1419,0.141,0.1327,0.1347,0.1335,0.1386,0.121,0.1206,0.1203,0.1396,0.1408,0.1419,0,0,0,0,0,0,0.1131,0.1146,0.1189,0.1211,0.1229,0.1303,0.1322,0.1336,0.1402,0.1413,0.141,0.1407,0.1376,0.1351,0.1341,0.1391,0.1338,0.1208,0.1206,0.1203,0.14,0.141,0.1419,0,0,0,0,0,0.1136,0.1148,0.1255,0.1211,0.1226,0.13,0.1323,0.1336,0.1397,0.1365,0.1368,0.1448,0.1375,0.1367,0.1345,0.1398,0.1345,0.1341,0.1207,0.1205,0.1203,0.1405,0,0,0,0,0,0,0.1139,0.1147,0.1258,0.1264,0.123,0.1299,0.1314,0.1335,0.1345,0.1351,0.1393,0.1399,0.1373,0.1368,0.1362,0.1404,0.1351,0.1347,0.1344,0.1205,0.1203,0.1202,0,0,0,0,0,0,0.1142,0.1152,0.1261,0.1282,0.1291,0.1298,0.1311,0.1264,0.1341,0.137,0.1378,0.1395,0.1361,0.1368,0.1363,0.129,0.1355,0.1351,0.1349,0.1347,0.1204,0.1202,0,0,0,0,0,0,0.1147,0.1156,0.1281,0.1287,0.1295,0.1364,0.1254,0.1309,0.1414,0.1366,0.142,0.1423,0.1358,0.1356,0.1364,0.1292,0.129,0.1355,0.1352,0.1351,0.1349,0,0,0,0,0,0,0,0.1151,0.1081,0.1228,0.1291,0.1298,0.1322,0.1323,0.1324,0.1415,0.1417,0.1419,0.1422,0.1376,0.1372,0.1368,0.1294,0,0,0.1355,0.1353,0,0,0,0,0,0,0,0,0.1078,0.1081,0.1229,0.123,0.1232,0.1322,0.1323,0.1324,0.1415,0.1417,0.1419,0.1421,0.1375,0.1371,0.1368,0,0,0,0,0,0,0,0,0,0,0,0,0,0,0,0.1229,0.123,0,0.1322,0.1323,0.1324,0.1415,0.1417,0.1418,0.142,0.1374,0.1371,0.1368,0,0,0,0,0,0,0,0,0,0,0,0,0,0,0,0,0,0,0,0,0,0,0,0,0,0,0,0,0,0,0,0,0,0,0,0,0,0,0,0,0,0,0,0,0,0,0,0,0,0,0,0,0,0,0,0,0,0,0,0,0,0,0,0,0,0,0,0,0]}]]]